This is the latest recevied weather packets stored in our database for station/object KB4NWJ. If no packets are shown the sender has not sent any weather packets the latest 10 day(s).
| Time | Temp. | Humidity | Pressure | Rain* | Wind** | Luminosity | Snow |
|---|---|---|---|---|---|---|---|
| 1777928947 | 25° C | 40% | 1015.3 hPa | 0 mm | - | 236 W/m² | - |
| 1777928644 | 25° C | 42% | 1015.3 hPa | 0 mm | - | 324 W/m² | - |
| 1777928341 | 25° C | 41% | 1015.3 hPa | 0 mm | - | 279 W/m² | - |
| 1777928038 | 25° C | 40% | 1015.3 hPa | 0 mm | - | 308 W/m² | - |
| 1777927736 | 24.44° C | 40% | 1015.5 hPa | 0 mm | - | 437 W/m² | - |
| 1777927435 | 24.44° C | 39% | 1015.4 hPa | 0 mm | - | 472 W/m² | - |
| 1777927134 | 23.89° C | 45% | 1015.4 hPa | 0 mm | - | 232 W/m² | - |
| 1777926830 | 25° C | 42% | 1015.5 hPa | 0 mm | - | 125 W/m² | - |
| 1777926526 | 25° C | 42% | 1015.5 hPa | 0 mm | - | 552 W/m² | - |
| 1777926223 | 25° C | 44% | 1015.7 hPa | 0 mm | - | 645 W/m² | - |
| 1777925920 | 24.44° C | 44% | 1015.8 hPa | 0 mm | - | 526 W/m² | - |
| 1777925617 | 23.89° C | 43% | 1015.7 hPa | 0 mm | - | 245 W/m² | - |
| 1777925315 | 24.44° C | 43% | 1015.7 hPa | 0 mm | - | 157 W/m² | - |
| 1777925011 | 24.44° C | 42% | 1015.9 hPa | 0 mm | - | 461 W/m² | - |
| 1777924707 | 25° C | 41% | 1015.7 hPa | 0 mm | - | 212 W/m² | - |
| 1777924403 | 25.56° C | 41% | 1015.9 hPa | 0 mm | - | 598 W/m² | - |
| 1777924100 | 25.56° C | 44% | 1015.8 hPa | 0 mm | - | 604 W/m² | - |
| 1777923796 | 25° C | 43% | 1016.2 hPa | 0 mm | - | 571 W/m² | - |
| 1777923492 | 24.44° C | 41% | 1016.2 hPa | 0 mm | - | 425 W/m² | - |
| 1777923190 | 25° C | 43% | 1016.1 hPa | 0 mm | - | 411 W/m² | - |
| 1777922888 | 25.56° C | 39% | 1016.4 hPa | 0 mm | - | 193 W/m² | - |
| 1777922586 | 25.56° C | 38% | 1016.2 hPa | 0 mm | - | 513 W/m² | - |
| 1777922284 | 25.56° C | 39% | 1016.5 hPa | 0 mm | - | 511 W/m² | - |
| 1777921981 | 25.56° C | 41% | 1016.4 hPa | 0 mm | - | 604 W/m² | - |
| 1777921677 | 25.56° C | 41% | 1016.4 hPa | 0 mm | - | 665 W/m² | - |
* Rain latest hour (hover to see other rain measurements)
** Current wind speed in m/s (hover to see current wind gust speed)